Tracking 35334 objects as of 13-Sep-2026
HD Live streaming from Space Station
objects crossing your sky now

SL-12 DEB


SL-12 DEB is no longer on orbit


NORAD ID: 28756
Int'l Code: 2002-037BB
Launch date: July 25, 2002
Source: Commonwealth of Independent States (former USSR) (CIS)
Launch site: TYURATAM MISSILE AND SPACE COMPLEX (TTMTR)
Decay date: 2005-08-03

Note: This is SATELLITE DEBRIS
Your satellite tracking list
Your tracking list is empty




NASA's NSSDC Master Catalog

Two Line Element Set (TLE):
1 28756U 02037BB  05215.23549302  .28307038  83125-5  53561-3 0  9999
2 28756 063.9117 283.3768 0022554 091.1920 017.3832 16.45080897  5113
Source of the keplerian elements: AFSPC